Other Public Products
Issued by NWS Charleston, SC

Current Version | Previous Version | Graphics & Text | Print | Product List | Glossary On
Versions: 1 2 3 4 5 6 7 8 9 10 11 12 13 14 15 16 17 18 19 20 21 22 23 24 25 26 27 28 29 30 31 32 33 34 35 36 37 38 39 40 41 42 43 44 45 46 47 48 49 50
000
FPUS82 KCHS 221127
OPUCHS

TEST...KCHS/KSAV Gateway Observations...TEST
National Weather Service Charleston SC
600 AM EST WED NOV 22 2017

NOTE: "fair" indicates few or no clouds below 12,000 feet with no
significant weather and/or obstructions to visibility.

SCZ050-WAZ558-NCZ071-TXZ119-213-PAZ071-DCZ001-FLZ074-172-MI076-
NYZ176-178-MAZ016-IL014-TNZ027-NJZ106-GAZ044-MD014-221200-

...Gateway Observations for Charleston International...

CITY           SKY/WX    TMP DP  RH WIND       PRES   REMARKS
Chas Airport   CLOUDY    60  59  96 NW9       29.95R
Seattle        LGT RAIN  57  56  96 S5        29.95F FOG
Charlotte      FOG       47  47 100 NW7       29.97S VSB 1/4
Dallas DFW     CLEAR     45  19  35 N18       30.31R
Dallas Love    CLEAR     45  19  35 N9        30.32R
Philladelphia  RAIN      52  50  93 SW8       29.92R
Wash National  CLOUDY    52  49  89 SW3       29.93F
Baltimore      CLOUDY    50  49  96 SW3       29.92R
Miami          CLEAR     71  69  93 CALM      29.91S
Detroit        FLURRIES  31  19  61 N13       30.20R WCI  21
Newark         CLOUDY    49  42  77 N5        29.90F
Laguardia      LGT RAIN  51  47  86 CALM      29.90F
J F K          LGT RAIN  50  50 100 S3        29.93F
Boston Logan   CLOUDY    49  47  93 S9        29.96F
Ft. Lauderdale PTCLDY    70  70 100 CALM      29.91R
Chicago O`Hare CLEAR     23  15  71 NW6       30.31R WCI  16
Chicago Midway CLEAR     25  14  63 NW10      30.31R WCI  15
Houston Bush   PTCLDY    58  55  90 N10       30.14R
Houston Hobby  CLOUDY    60  55  83 N16       30.13R
Nashville      CLEAR     36  28  73 N15G22    30.22R WCI  27
Atlanta        CLEAR     50  50 100 NW10      30.01S

$$

GAZ044-118-TXZ119-213-NCZ071-DCZ001-MDZ014-506-PAZ021-071-NJZ106-
NYZ176-178-MAZ106-OHZ011-021-055-MIZ076-KYZ091-ILZ014-INZ047-
MNZ060-ONZ431-221200-

...Gateway Observations for Savannah International...

CITY           SKY/WX    TMP DP  RH WIND       PRES   REMARKS
Savannah Arpt  FOG       60  60 100 W6        29.98R VSB 1/2
Atlanta        CLEAR     50  50 100 NW10      30.01S
Charlotte      FOG       47  47 100 NW7       29.97S VSB 1/4
Dallas DFW     CLEAR     45  19  35 N18       30.31R
Houston Bush   PTCLDY    58  55  90 N10       30.14R
Wash National  CLOUDY    52  49  89 SW3       29.93F
Wash Dulles    CLOUDY    46  43  89 CALM      29.94R
Baltimore      CLOUDY    50  49  96 SW3       29.92R
Philadelphia   RAIN      52  50  93 SW8       29.92R
Newark         CLOUDY    49  42  77 N5        29.90F
Laguardia      LGT RAIN  51  47  86 CALM      29.90F
J F K          LGT RAIN  50  50 100 S3        29.93F
Boston         CLOUDY    49  47  93 S9        29.96F
Pittsburg      DRIZZLE   36  35  96 NW10      30.06R WCI  28
Akron          FLURRIES  35  29  78 N15       30.10R WCI  25
Cleveland      FLURRIES  35  27  72 NW13      30.16R WCI  26
Cincinnati     CLEAR     29  25  85 NW9       30.22R WCI  20
Columbus       PTCLDY    31  29  93 NW6       30.18R WCI  25
Detroit        FLURRIES  31  19  61 N13       30.20R WCI  21
Chicago O`Hare CLEAR     23  15  71 NW6       30.31R WCI  16
Minneapolis    CLOUDY    16  10  77 CALM      30.33F
Indianapolis   PTCLDY    25  19  78 NW8       30.26R WCI  16
Toronto Canada CLOUDY    34  23  64 W15G22    30.04R WCI  24

$$




USA.gov is the U.S. government's official web portal to all federal, state and local government web resources and services.